Wind_Speed
2 6 5 7 7 8 7 7 7 8 8 8 7 6 5 5 6 7 7 7 8 8 8 7 8 7 7 7 7 7 7 6 5 4 3 3 1 1 3 4 4 4 4 6 7 7 5
2 4 7 9 8 7 6 6 5 5 5 5 5 5 5 5 5 6 6 6 6 6 6 5 5 4 5 4 4 3 4 4 4 3 2 2 2 1 2 4 5 5 6 6 5 2 6
2 3 6 8 8 7 6 5 4 4 4 4 4 5 5 6 6 6 5 5 4 5 5 5 5 5 5 3 3 2 1 2 2 3 3 2 3 3 2 4 6 6 7 7 6 7 10
2 2 4 6 8 9 8 7 6 6 5 5 5 5 6 6 7 8 9 9 8 8 8 8 8 8 8 8 8 8 7 7 6 5 4 5 6 6 4 4 5 5 7 5 15 12 8
1 2 3 5 7 8 10 10 10 9 9 8 8 9 9 10 10 10 11 12 12 13 13 14 14 14 13 13 13 13 12 12 10 8 7 8 8 8 7 4 4 4 3 12 13 12 11
3 3 4 4 6 7 9 11 11 12 12 13 13 13 13 13 12 12 12 12 13 14 15 16 17 19 16 17 18 18 17 15 14 12 9 10 11 11 9 6 3 5 12 12 11 10 10
6 6 6 6 7 8 9 10 10 11 12 13 14 14 14 15 16 15 16 16 17 17 19 21 21 23 20 20 21 20 20 18 17 15 14 14 13 12 11 9 8 9 11 12 13 13 9
8 8 8 8 8 9 10 11 12 13 15 15 16 16 17 18 19 19 20 21 21 21 20 21 21 23 22 21 21 20 20 20 19 17 16 16 15 15 14 12 11 11 12 12 14 11 10
10 10 10 10 10 11 13 14 15 15 17 18 18 19 21 22 24 25 25 25 25 24 23 20 19 20 20 20 20 18 18 16 15 14 14 15 18 17 15 14 13 13 14 14 16 11 7
14 14 14 15 16 16 15 15 16 15 16 16 15 16 18 19 21 21 21 23 23 22 20 18 17 16 16 15 15 13 13 13 12 12 14 14 16 15 15 15 17 16 17 19 16 11 8
15 19 18 18 17 15 14 14 14 14 16 17 17 18 17 17 17 17 17 17 17 18 14 15 14 14 12 12 10 12 10 9 10 10 10 12 14 14 12 14 19 17 22 18 13 10 13
14 13 13 13 13 13 12 12 13 14 14 17 17 17 17 18 17 16 15 14 15 17 20 14 12 10 9 9 10 10 10 12 13 12 12 15 15 15 16 19 18 19 18 19 15 14 15
15 14 14 14 14 14 12 11 11 13 13 15 17 17 16 16 17 15 15 15 15 17 22 18 17 16 15 14 14 16 17 16 17 17 17 20 19 19 19 20 19 19 19 16 14 14 13
17 16 16 15 15 14 12 10 10 12 13 14 14 14 15 16 16 16 15 16 18 21 21 19 19 19 20 19 20 21 21 21 20 18 17 18 15 21 19 18 21 19 20 16 11 8 9
18 17 16 15 14 13 13 14 12 13 14 14 14 13 13 15 16 16 16 16 18 24 23 21 23 24 24 25 23 24 23 21 20 17 15 10 13 22 16 17 18 17 19 17 20 18 18
18 17 17 17 16 16 16 16 16 15 16 16 15 14 15 15 17 18 19 19 21 21 20 22 22 23 21 22 23 23 22 21 20 18 18 18 19 21 18 17 17 17 16 17 18 19 17
16 16 16 15 15 16 16 17 19 19 18 17 17 16 17 17 18 19 20 23 21 21 23 22 23 24 21 19 23 21 22 21 22 23 21 21 20 13 20 15 15 16 17 19 18 18 16
16 15 15 16 16 17 19 20 22 23 20 18 17 17 19 20 21 21 23 27 23 26 26 26 25 25 26 27 28 25 20 20 28 25 25 22 22 22 22 19 18 18 17 19 19 19 19
16 17 17 17 19 21 22 22 20 19 18 18 18 19 20 20 23 25 27 26 29 30 29 30 29 29 29 28 29 28 27 35 33 24 27 26 27 24 20 19 22 25 25 22 20 19 21
18 19 20 21 22 23 21 19 18 18 19 20 21 23 22 24 24 26 29 27 30 30 32 33 34 34 31 32 32 33 34 41 33 30 36 33 30 25 21 19 11 25 24 24 23 23 22
21 22 23 22 20 19 20 19 19 21 22 23 24 25 27 27 27 28 30 30 32 32 31 33 34 35 35 35 35 36 36 39 39 39 38 37 39 37 33 28 34 26 27 29 24 24 27
21 22 22 20 21 21 21 22 23 24 25 26 27 29 30 31 32 30 31 32 33 34 37 33 35 37 37 35 36 39 42 40 42 43 39 40 42 40 42 35 37 46 39 34 33 33 37
21 21 22 22 22 23 24 25 26 28 30 33 34 35 35 33 33 33 36 33 34 35 36 36 40 38 39 44 42 41 41 41 44 43 43 42 42 42 46 39 36 43 42 43 42 36 36
21 22 23 24 25 26 28 30 33 35 35 34 32 31 30 33 31 33 34 35 37 37 38 41 41 42 45 43 43 43 45 46 46 47 46 46 46 47 47 36 46 37 31 34 38 33 37
23 25 27 28 30 33 33 34 32 31 31 30 30 30 31 32 33 34 34 35 37 39 40 42 45 44 45 44 46 45 45 47 47 46 46 47 46 48 44 40 44 38 34 37 37 36 36
27 28 30 32 33 33 32 32 32 31 32 33 33 33 33 32 33 35 36 37 38 38 39 41 42 42 42 43 44 44 44 42 44 46 45 46 46 46 41 44 50 34 29 36 44 42 37
29 30 30 30 32 33 34 34 34 35 35 34 35 34 34 33 35 34 35 35 34 35 35 38 36 35 37 36 38 38 38 39 41 38 29 35 36 38 37 40 45 38 39 35 50 43 43
29 31 33 34 35 36 36 36 35 34 34 34 34 34 33 33 34 33 34 33 34 34 34 37 33 36 34 34 35 35 38 35 37 35 34 34 35 37 30 35 42 34 35 42 46 50 46
33 34 35 36 37 37 37 37 36 35 34 34 34 34 33 33 33 33 33 34 34 34 34 34 33 34 34 31 33 35 34 33 36 32 31 37 36 35 32 33 37 38 37 47 50 51 45
Wind_Direction
135 185 166 152 143 131 124 120 122 128 134 137 142 148 147 140 140 145 146 143 141 142 147 146 142 139 139 126 119 110 98 89 81 74 63 48 40 215 218 241 260 246 243 304 330 338 359
107 178 179 166 163 156 148 141 138 140 144 149 150 154 162 162 157 154 155 156 156 157 165 175 174 171 163 154 135 123 98 81 64 40 33 350 329 298 238 245 259 262 246 287 345 26 331
162 164 191 188 185 189 191 184 173 176 182 188 184 184 188 197 200 195 195 197 200 209 214 217 217 214 210 218 231 247 285 341 357 346 324 291 288 279 272 261 265 275 254 269 289 294 314
190 192 196 206 211 215 218 224 225 222 219 226 223 222 219 224 226 227 235 241 244 246 249 250 251 249 248 254 259 269 279 288 300 302 284 264 254 265 265 271 278 278 276 273 275 278 295
201 220 222 227 230 236 239 243 245 245 244 245 246 247 244 243 243 246 247 253 257 260 261 263 263 263 264 264 267 270 274 281 285 280 264 251 239 244 246 252 266 265 174 268 290 279 290
255 258 255 251 247 245 248 251 252 252 253 256 259 259 258 255 253 255 258 260 264 266 266 267 266 266 267 269 268 271 275 276 276 273 259 245 237 233 240 239 185 237 263 275 264 290 283
271 267 265 264 264 262 260 259 259 260 261 260 259 260 258 258 257 258 260 265 271 274 273 271 267 266 262 263 263 264 268 269 269 267 259 250 245 239 237 236 236 247 259 268 278 289 292
274 271 271 269 269 268 268 266 265 265 266 267 265 264 262 262 264 264 265 267 271 274 276 273 268 264 262 262 262 263 264 266 266 262 259 254 248 242 237 240 242 248 256 267 277 283 288
275 275 275 276 279 282 281 279 277 274 270 270 272 270 267 265 266 268 269 269 270 271 273 274 268 261 260 260 258 255 258 263 260 256 254 249 246 251 245 242 244 247 254 253 256 278 286
279 275 276 280 286 287 286 283 281 277 272 273 273 270 270 270 270 270 270 269 262 260 266 266 262 257 253 253 250 246 248 254 251 246 249 252 250 253 248 241 240 240 253 256 263 271 282
292 272 273 279 281 281 279 278 279 276 272 272 272 269 266 266 266 266 268 267 252 249 260 258 250 250 250 244 240 232 232 239 253 251 254 256 255 254 256 244 241 241 246 264 276 275 263
284 281 269 268 269 272 275 278 279 278 274 272 272 270 266 256 257 257 258 256 246 244 253 251 244 244 238 242 236 230 243 254 258 255 249 254 256 260 250 247 247 247 252 259 260 259 262
274 274 274 273 273 278 280 281 284 285 288 284 274 264 262 256 249 249 248 243 241 237 253 248 248 249 250 254 252 249 256 256 259 258 260 258 264 260 261 264 261 255 251 255 265 264 276
272 272 275 276 273 270 271 278 288 290 294 294 287 270 264 258 251 249 247 242 238 240 248 248 253 252 258 258 258 255 256 260 258 254 251 268 278 256 256 256 260 251 246 234 253 265 284
268 267 270 273 269 263 274 275 286 297 297 300 293 285 273 260 253 253 251 248 239 243 250 253 253 257 258 264 262 260 260 257 255 251 245 248 259 263 264 254 252 259 248 251 249 248 255
263 264 268 272 265 267 274 279 283 291 294 297 292 285 279 270 259 254 255 252 252 250 247 247 249 253 255 258 256 259 259 257 254 250 240 239 234 267 254 252 254 248 237 252 257 254 249
259 265 269 269 267 270 274 283 287 290 293 290 286 279 273 271 266 261 254 250 252 248 248 246 244 248 245 236 257 253 255 255 249 252 244 242 243 241 263 250 253 256 254 252 239 236 255
262 266 268 274 274 275 280 284 287 290 291 288 284 277 273 269 266 262 254 253 253 252 248 244 245 248 249 247 246 252 237 247 253 242 250 245 244 245 244 260 257 247 241 261 251 251 251
264 270 272 274 278 281 285 286 287 287 289 289 283 280 276 275 269 264 259 258 255 253 249 248 249 250 247 247 249 247 242 244 258 245 246 246 250 247 247 251 260 257 264 249 243 253 253
267 271 275 277 281 284 284 284 284 286 289 292 291 287 281 279 275 268 265 260 259 255 253 252 252 253 253 252 250 247 241 249 254 247 248 248 249 243 242 238 247 241 246 251 246 247 256
273 275 278 279 279 279 280 281 284 288 290 292 291 290 287 284 279 275 268 265 259 259 253 255 253 253 253 252 251 251 247 251 254 249 251 250 250 246 245 243 228 242 255 247 243 244 246
278 276 276 277 280 281 282 283 286 289 292 292 294 292 287 284 280 277 273 267 264 259 258 255 254 253 251 254 252 248 248 248 250 261 253 254 254 254 252 248 249 237 246 250 256 259 257
279 281 282 283 283 283 285 287 288 290 292 292 291 289 286 283 278 273 271 272 268 265 265 259 259 257 259 253 255 259 260 257 257 256 257 258 254 253 255 254 259 257 251 254 256 255 258
287 286 285 287 289 290 290 292 292 293 295 296 292 289 286 283 280 276 274 270 268 266 264 264 262 261 259 261 261 257 255 256 256 256 256 255 256 256 257 250 247 257 250 251 255 251 247
288 289 290 291 293 294 295 295 297 299 300 299 295 290 286 283 281 278 276 272 269 268 266 265 264 262 264 262 261 259 258 258 259 259 258 257 255 255 255 255 259 251 252 253 250 252 255
291 292 293 295 296 297 298 300 302 301 299 297 293 290 288 284 282 280 277 276 274 271 270 266 265 265 265 264 263 262 262 262 262 262 259 256 254 252 252 253 253 249 244 239 247 248 245
294 294 295 296 296 297 297 299 299 299 298 294 292 289 285 285 284 282 279 277 275 274 271 271 269 267 265 263 263 263 263 261 257 255 247 256 257 252 252 255 258 249 234 239 247 251 246
300 300 300 299 298 297 298 299 298 296 295 292 291 288 284 284 282 280 278 276 276 274 270 271 268 263 264 262 263 264 263 263 261 261 256 245 254 257 258 250 255 258 252 247 251 250 250
301 302 302 302 302 302 301 300 296 292 290 288 286 284 283 283 281 280 280 279 278 275 272 270 267 266 265 265 261 260 264 261 262 260 264 263 256 248 240 243 250 264 250 243 250 256 256
Height
5890 5891 5891 5892 5893 5893 5894 5894 5895 5895 5896 5897 5898 5898 5899 5900 5900 5901 5902 5903 5904 5905 5906 5907 5908 5909 5910 5911 5912 5912 5912 5912 5911 5911 5911 5910 5909 5909 5909 5909 5909 5909 5908 5907 5905 5904 5904
5890 5891 5892 5893 5894 5895 5895 5896 5896 5897 5897 5898 5898 5899 5900 5900 5901 5902 5903 5904 5905 5906 5907 5907 5908 5909 5910 5911 5912 5912 5912 5913 5912 5912 5911 5911 5910 5909 5909 5909 5909 5909 5909 5907 5906 5905 5905
5891 5891 5892 5893 5894 5895 5896 5896 5897 5897 5898 5898 5898 5899 5900 5901 5901 5902 5903 5904 5905 5906 5906 5907 5908 5909 5910 5911 5911 5911 5912 5912 5912 5912 5911 5911 5910 5910 5909 5909 5909 5908 5909 5908 5907 5905 5905
5891 5891 5891 5892 5893 5894 5895 5896 5896 5897 5898 5898 5899 5899 5900 5900 5901 5901 5902 5903 5904 5905 5906 5906 5907 5908 5908 5909 5910 5910 5911 5911 5911 5911 5911 5910 5909 5909 5909 5909 5909 5909 5910 5909 5908 5905 5905
5890 5891 5891 5891 5892 5893 5893 5894 5895 5896 5896 5897 5897 5898 5899 5899 5900 5900 5901 5901 5902 5903 5904 5904 5905 5905 5906 5907 5907 5908 5908 5909 5909 5909 5909 5909 5908 5908 5908 5909 5909 5909 5914 5910 5905 5905 5904
5890 5890 5890 5890 5891 5891 5891 5892 5893 5893 5894 5895 5895 5895 5896 5896 5897 5898 5898 5899 5899 5900 5901 5901 5901 5903 5903 5904 5904 5904 5905 5905 5906 5907 5907 5907 5906 5907 5907 5908 5911 5915 5911 5908 5907 5904 5903
5889 5889 5889 5889 5889 5889 5889 5889 5890 5891 5891 5891 5892 5892 5893 5893 5894 5895 5895 5896 5897 5898 5896 5897 5898 5896 5898 5899 5899 5900 5901 5902 5902 5903 5904 5903 5904 5905 5906 5907 5907 5907 5907 5906 5905 5903 5903
5887 5887 5887 5887 5887 5887 5887 5887 5887 5887 5887 5888 5888 5889 5889 5889 5890 5890 5891 5892 5892 5893 5892 5891 5892 5892 5893 5894 5895 5896 5897 5898 5898 5899 5899 5901 5901 5902 5903 5904 5905 5905 5904 5904 5904 5903 5902
5885 5885 5885 5885 5885 5884 5884 5884 5884 5884 5883 5884 5884 5884 5884 5884 5885 5885 5886 5887 5887 5887 5887 5887 5887 5887 5888 5889 5890 5891 5892 5893 5894 5895 5896 5896 5898 5898 5900 5902 5902 5902 5901 5902 5902 5901 5901
5883 5882 5882 5882 5881 5881 5881 5880 5880 5880 5879 5880 5880 5879 5879 5879 5880 5879 5880 5880 5881 5882 5883 5884 5883 5884 5885 5885 5886 5887 5888 5890 5890 5891 5892 5893 5894 5895 5897 5899 5899 5899 5898 5898 5899 5900 5899
5879 5878 5878 5878 5878 5877 5877 5877 5876 5876 5876 5875 5876 5875 5875 5875 5875 5875 5876 5876 5877 5878 5881 5880 5880 5881 5881 5883 5884 5884 5885 5887 5887 5889 5891 5891 5891 5892 5894 5895 5895 5897 5896 5896 5897 5897 5896
5876 5875 5874 5874 5874 5874 5873 5873 5872 5872 5872 5871 5871 5870 5870 5871 5871 5871 5872 5872 5874 5877 5875 5876 5877 5878 5879 5880 5880 5881 5883 5884 5885 5886 5887 5888 5888 5889 5890 5890 5891 5892 5893 5893 5894 5894 5894
5872 5872 5871 5871 5871 5870 5870 5870 5869 5868 5868 5867 5866 5866 5866 5865 5867 5867 5868 5869 5871 5872 5872 5873 5873 5874 5875 5876 5877 5878 5879 5880 5882 5883 5883 5883 5885 5885 5886 5886 5888 5888 5889 5890 5892 5893 5894
5868 5868 5868 5867 5867 5867 5866 5867 5866 5865 5864 5863 5862 5861 5861 5861 5862 5863 5864 5866 5867 5867 5867 5868 5870 5870 5871 5872 5873 5873 5874 5875 5877 5878 5879 5879 5881 5880 5881 5882 5883 5884 5885 5889 5894 5897 5900
5864 5864 5864 5864 5863 5863 5863 5863 5863 5862 5861 5859 5858 5857 5857 5857 5858 5859 5861 5861 5862 5861 5862 5864 5865 5866 5867 5867 5868 5868 5869 5870 5871 5874 5876 5879 5877 5874 5876 5876 5878 5879 5880 5883 5884 5889 5892
5859 5860 5860 5859 5859 5859 5859 5859 5858 5858 5857 5855 5854 5853 5853 5853 5853 5854 5856 5857 5856 5856 5858 5859 5860 5861 5863 5863 5863 5864 5864 5866 5867 5868 5869 5871 5872 5870 5871 5872 5873 5874 5877 5879 5879 5882 5884
5855 5855 5855 5855 5855 5855 5855 5855 5853 5853 5852 5851 5849 5849 5848 5848 5848 5849 5850 5850 5850 5851 5852 5854 5855 5856 5858 5859 5858 5859 5860 5861 5862 5862 5864 5865 5866 5870 5866 5868 5869 5870 5871 5872 5874 5880 5883
5851 5851 5852 5852 5851 5851 5851 5850 5849 5847 5846 5845 5844 5844 5842 5842 5843 5843 5843 5843 5846 5845 5846 5847 5848 5849 5851 5852 5853 5853 5856 5855 5852 5856 5856 5859 5860 5861 5863 5864 5864 5865 5869 5869 5869 5871 5873
5847 5847 5847 5847 5847 5846 5845 5844 5843 5841 5840 5840 5839 5838 5837 5837 5836 5835 5835 5836 5836 5837 5838 5839 5841 5841 5842 5844 5845 5846 5848 5842 5845 5849 5849 5851 5851 5854 5858 5863 5862 5859 5860 5862 5867 5870 5871
5843 5842 5842 5842 5841 5840 5839 5838 5837 5836 5835 5834 5834 5832 5832 5830 5829 5828 5827 5828 5828 5828 5829 5830 5832 5832 5834 5835 5836 5837 5838 5833 5838 5841 5838 5841 5844 5847 5853 5859 5856 5852 5852 5854 5858 5861 5864
5837 5837 5836 5835 5834 5834 5833 5832 5832 5830 5829 5828 5827 5826 5823 5823 5822 5820 5819 5819 5819 5819 5820 5821 5822 5823 5824 5824 5826 5826 5828 5828 5826 5828 5831 5833 5833 5836 5838 5843 5844 5844 5845 5846 5847 5850 5851
5831 5830 5830 5830 5829 5828 5828 5827 5825 5824 5822 5821 5819 5817 5816 5814 5812 5811 5809 5809 5809 5810 5810 5813 5812 5811 5813 5815 5815 5815 5814 5818 5817 5817 5821 5822 5822 5825 5825 5829 5831 5832 5833 5835 5837 5838 5839
5826 5825 5824 5823 5823 5822 5821 5819 5818 5816 5814 5812 5810 5808 5805 5804 5802 5802 5799 5800 5799 5799 5800 5801 5799 5802 5802 5799 5802 5805 5806 5807 5807 5807 5809 5810 5812 5812 5811 5816 5819 5816 5823 5823 5824 5828 5830
5821 5819 5818 5817 5816 5815 5813 5811 5809 5806 5804 5802 5799 5797 5796 5793 5793 5791 5790 5789 5788 5787 5788 5787 5789 5789 5788 5791 5791 5792 5791 5792 5792 5794 5796 5797 5799 5799 5799 5804 5799 5809 5814 5814 5813 5815 5817
5815 5813 5811 5810 5808 5805 5804 5801 5799 5796 5794 5792 5790 5788 5786 5784 5782 5781 5780 5778 5777 5776 5776 5774 5773 5774 5775 5777 5776 5776 5778 5778 5779 5781 5782 5784 5785 5785 5785 5788 5791 5797 5800 5801 5801 5802 5803
5808 5806 5803 5801 5799 5796 5794 5792 5789 5787 5784 5782 5780 5778 5776 5774 5772 5769 5768 5767 5766 5764 5763 5762 5761 5761 5761 5761 5761 5762 5764 5765 5765 5766 5767 5768 5770 5770 5774 5772 5774 5787 5789 5784 5782 5784 5790
5799 5797 5794 5792 5790 5787 5784 5782 5779 5776 5773 5770 5768 5765 5764 5762 5760 5758 5757 5754 5754 5752 5751 5748 5749 5750 5748 5748 5749 5750 5751 5751 5752 5753 5757 5754 5755 5756 5759 5759 5761 5768 5772 5772 5769 5778 5776
5792 5790 5787 5784 5781 5778 5775 5771 5768 5764 5761 5759 5756 5753 5752 5749 5747 5746 5744 5743 5742 5740 5739 5737 5738 5736 5738 5738 5738 5739 5738 5738 5738 5740 5741 5744 5745 5744 5748 5748 5749 5757 5756 5756 5757 5754 5759
5783 5780 5777 5774 5770 5767 5764 5760 5756 5753 5750 5747 5745 5742 5740 5738 5737 5735 5733 5731 5730 5729 5728 5727 5726 5725 5726 5727 5726 5726 5727 5727 5726 5728 5730 5730 5731 5733 5738 5737 5734 5736 5740 5740 5741 5742 5746